Regional Weather Roundup
Issued by NWS

Current Version | Previous Version | Text Only | Print | Product List | Glossary Off
Versions: 1 2 3 4 5 6 7 8 9 10 11 12 13 14 15 16 17 18 19 20 21 22 23 24 25 26 27 28 29 30 31 32 33 34 35 36 37 38 39 40 41 42 43 44 45 46 47 48 49 50

000
ASUS44 KJAN 070603
RWRMS

MISSISSIPPI HOURLY WEATHER ROUNDUP
NATIONAL WEATHER SERVICE JACKSON MS
1200 AM CST SUN FEB 07 2016

NOTE: "FAIR: INDICATES FEW OR NO CLOUDS BELOW 12,000 FEET WITH NO
SIGNIFICANT WEATHER AND/OR OBSTRUCTIONS TO VISIBILITY.

MSZ001>002-007>008-010>013-018>021-025>028-034>036-070700-
NORTHWEST MISSISSIPPI

CITY           SKY/WX    TMP DP  RH WIND       PRES   REMARKS
CLEVELAND      FAIR      35  35 100 CALM      30.30F
GREENWOOD      CLEAR     30  25  81 NE3       30.31F
6HR MIN TEMP:  30; 6HR MAX TEMP:  50;

GREENVILLE     CLEAR     36  28  73 CALM      30.30F
6HR MIN TEMP:  35; 6HR MAX TEMP:  49;

OLIVE BRANCH   CLEAR     32  28  86 CALM      30.30S
OXFORD         FAIR      28  23  80 CALM      30.32S
TUNICA         CLEAR     34  32  93 CALM      30.31F
$$

MSZ003>006-009-014>017-022>024-029>033-037>039-070700-
NORTHEAST MISSISSIPPI

CITY           SKY/WX    TMP DP  RH WIND       PRES   REMARKS
COLUMBUS AFB   CLEAR     31  27  88 CALM      30.28F
6HR MIN TEMP:  30; 6HR MAX TEMP:  47;

CORINTH        FAIR      30  27  86 W3        30.29S
GOLDN TRIANGLE PTCLDY    34  25  69 NW3       30.28F
STARKVILLE     FAIR      28  27  93 CALM      30.30F
TUPELO         CLEAR     32  26  78 CALM      30.29F
6HR MIN TEMP:  32; 6HR MAX TEMP:  46;

$$

MSZ040-058-070700-
CENTRAL MISSISSIPPI

CITY           SKY/WX    TMP DP  RH WIND       PRES   REMARKS
JACKSON INTL   CLEAR     35  27  72 CALM      30.29F
6HR MIN TEMP:  34; 6HR MAX TEMP:  47;

JACKSON HAWKNS CLEAR     36  26  67 CALM      30.30F
6HR MIN TEMP:  36; 6HR MAX TEMP:  51;

MERIDIAN KEY   CLEAR     28  25  88 CALM      30.29F
6HR MIN TEMP:  28; 6HR MAX TEMP:  44;

MERIDIAN NAS   CLEAR     34  24  67 CALM      30.30F
6HR MIN TEMP:  33; 6HR MAX TEMP:  47;

VICKSBURG      CLEAR     37  34  89 CALM      30.32S
6HR MIN TEMP:  35; 6HR MAX TEMP:  51;

$$

MSZ059>079-070700-
SOUTH MISSISSIPPI

CITY           SKY/WX    TMP DP  RH WIND       PRES   REMARKS
BROOKHAVEN     FAIR      36  30  80 MISG      30.30S
HATTIESBURG    CLEAR     32  28  85 CALM      30.29F
6HR MIN TEMP:  32; 6HR MAX TEMP:  51;

MCCOMB         PTCLDY    40  24  53 NE5       30.28F
6HR MIN TEMP:  37; 6HR MAX TEMP:  52;

NATCHEZ        CLEAR     34  25  69 CALM      30.30F
6HR MIN TEMP:  34; 6HR MAX TEMP:  52;

PINE BELT      CLEAR     30  23  74 MISG      30.28F
6HR MIN TEMP:  30; 6HR MAX TEMP:  45;

$$

MSZ080>082-070700-
COASTAL MISSISSIPPI

CITY           SKY/WX    TMP DP  RH WIND       PRES   REMARKS
BILOXI         CLEAR     44  28  54 N6        30.28R
6HR MIN TEMP:  43; 6HR MAX TEMP:  49;

PASCAGOULA     CLEAR     34  32  92 CALM      30.28R
6HR MIN TEMP:  34; 6HR MAX TEMP:  49;

GULFPORT       CLEAR     39  31  72 CALM      30.28S
6HR MIN TEMP:  38; 6HR MAX TEMP:  50;

$$



USA.gov is the U.S. government's official web portal to all federal, state and local government web resources and services.